owner,sensor,date,latitude,longitude,air_temperature,qcFlag 
TABS,ioos:station:wmo:42043:1,2002-07-14T05:39:00Z,28.9818,-94.9186,27.7,11144222 
TABS,ioos:station:wmo:42043:1,2002-07-14T06:09:00Z,28.9818,-94.9186,26.8,11144222 
TABS,ioos:station:wmo:42043:1,2002-07-14T06:39:00Z,28.9818,-94.9186,28.0,11144222 
TABS,ioos:station:wmo:42043:1,2002-07-14T07:09:00Z,28.9818,-94.9186,28.2,11144222 
TABS,ioos:station:wmo:42043:1,2002-07-14T07:39:00Z,28.9818,-94.9186,28.2,11144222 
TABS,ioos:station:wmo:42043:1,2002-07-14T08:09:00Z,28.9818,-94.9186,28.3,11144222 
TABS,ioos:station:wmo:42043:1,2002-07-14T08:39:00Z,28.9818,-94.9186,28.4,11144222 
TABS,ioos:station:wmo:42043:1,2002-07-14T09:09:00Z,28.9818,-94.9186,28.6,11144222 
TABS,ioos:station:wmo:42043:1,2002-07-14T09:39:00Z,28.9818,-94.9186,29.0,11144222 
TABS,ioos:station:wmo:42043:1,2002-07-14T10:09:00Z,28.9818,-94.9186,29.4,11144222 
TABS,ioos:station:wmo:42043:1,2002-07-14T10:39:00Z,28.9818,-94.9186,29.5,11144222 
TABS,ioos:station:wmo:42043:1,2002-07-14T11:09:00Z,28.9818,-94.9186,29.5,11144222 
TABS,ioos:station:wmo:42043:1,2002-07-14T11:39:00Z,28.9818,-94.9186,29.4,11144222 
TABS,ioos:station:wmo:42043:1,2002-07-14T12:09:00Z,28.9818,-94.9186,29.5,11144222 
TABS,ioos:station:wmo:42043:1,2002-07-14T12:39:00Z,28.9818,-94.9186,29.6,11144222 
TABS,ioos:station:wmo:42043:1,2002-07-14T13:09:00Z,28.9818,-94.9186,29.6,11144222 
TABS,ioos:station:wmo:42043:1,2002-07-14T13:39:00Z,28.9818,-94.9186,29.7,11144222 
TABS,ioos:station:wmo:42043:1,2002-07-14T14:09:00Z,28.9818,-94.9186,29.7,11144222 
TABS,ioos:station:wmo:42043:1,2002-07-14T14:39:00Z,28.9818,-94.9186,27.9,11144222 
TABS,ioos:station:wmo:42043:1,2002-07-14T15:09:00Z,28.9818,-94.9186,28.6,11144222 
TABS,ioos:station:wmo:42043:1,2002-07-14T15:39:00Z,28.9818,-94.9186,29.1,11144222 
TABS,ioos:station:wmo:42043:1,2002-07-14T16:09:00Z,28.9818,-94.9186,29.1,11144222 
TABS,ioos:station:wmo:42043:1,2002-07-14T16:39:00Z,28.9818,-94.9186,28.3,11144222 
TABS,ioos:station:wmo:42043:1,2002-07-14T17:09:00Z,28.9818,-94.9186,29.0,11144222 
TABS,ioos:station:wmo:42043:1,2002-07-14T17:39:00Z,28.9818,-94.9186,29.6,11144222 
TABS,ioos:station:wmo:42043:1,2002-07-14T18:09:00Z,28.9818,-94.9186,29.7,11144222 
TABS,ioos:station:wmo:42043:1,2002-07-14T18:39:00Z,28.9818,-94.9186,28.4,11144222 
TABS,ioos:station:wmo:42043:1,2002-07-14T19:09:00Z,28.9818,-94.9186,28.1,11144222 
TABS,ioos:station:wmo:42043:1,2002-07-14T19:39:00Z,28.9818,-94.9186,28.7,11144222 
TABS,ioos:station:wmo:42043:1,2002-07-14T20:09:00Z,28.9818,-94.9186,28.8,11144222 
TABS,ioos:station:wmo:42043:1,2002-07-14T20:39:00Z,28.9818,-94.9186,28.0,11144222 
TABS,ioos:station:wmo:42043:1,2002-07-14T21:09:00Z,28.9818,-94.9186,27.5,11144222 
TABS,ioos:station:wmo:42043:1,2002-07-14T21:39:00Z,28.9818,-94.9186,28.1,11144222 
TABS,ioos:station:wmo:42043:1,2002-07-14T22:09:00Z,28.9818,-94.9186,29.2,11144222 
TABS,ioos:station:wmo:42043:1,2002-07-14T22:39:00Z,28.9818,-94.9186,28.8,11144222 
TABS,ioos:station:wmo:42043:1,2002-07-14T23:09:00Z,28.9818,-94.9186,29.2,11144222 
TABS,ioos:station:wmo:42043:1,2002-07-14T23:39:00Z,28.9818,-94.9186,29.3,11144222 
TABS,ioos:station:wmo:42043:1,2002-07-15T00:09:00Z,28.9818,-94.9186,29.2,11144222 
TABS,ioos:station:wmo:42043:1,2002-07-15T00:39:00Z,28.9818,-94.9186,28.7,11144222 
TABS,ioos:station:wmo:42043:1,2002-07-15T01:09:00Z,28.9818,-94.9186,28.9,11144222 
TABS,ioos:station:wmo:42043:1,2002-07-15T01:39:00Z,28.9818,-94.9186,29.1,11144222 
TABS,ioos:station:wmo:42043:1,2002-07-15T02:09:00Z,28.9818,-94.9186,29.3,11144222 
TABS,ioos:station:wmo:42043:1,2002-07-15T02:39:00Z,28.9818,-94.9186,29.3,11144222 
TABS,ioos:station:wmo:42043:1,2002-07-15T03:09:00Z,28.9818,-94.9186,29.5,11144222 
TABS,ioos:station:wmo:42043:1,2002-07-15T03:39:00Z,28.9818,-94.9186,29.8,11144222 
TABS,ioos:station:wmo:42043:1,2002-07-15T04:09:00Z,28.9818,-94.9186,29.8,11144222 
TABS,ioos:station:wmo:42043:1,2002-07-15T04:39:00Z,28.9818,-94.9186,29.7,11144222 
TABS,ioos:station:wmo:42043:1,2002-07-15T05:09:00Z,28.9818,-94.9186,29.6,11144222 
TABS,ioos:station:wmo:42043:1,2002-07-15T05:39:00Z,28.9818,-94.9186,29.6,11144222 
TABS,ioos:station:wmo:42043:1,2002-07-15T06:09:00Z,28.9818,-94.9186,29.6,11144222 
TABS,ioos:station:wmo:42043:1,2002-07-15T06:39:00Z,28.9818,-94.9186,29.6,11144222 
TABS,ioos:station:wmo:42043:1,2002-07-15T07:09:00Z,28.9818,-94.9186,29.6,11144222 
TABS,ioos:station:wmo:42043:1,2002-07-15T07:39:00Z,28.9818,-94.9186,29.7,11144222 
TABS,ioos:station:wmo:42043:1,2002-07-15T08:09:00Z,28.9818,-94.9186,29.6,11144222 
TABS,ioos:station:wmo:42043:1,2002-07-15T08:39:00Z,28.9818,-94.9186,29.7,11144222 
TABS,ioos:station:wmo:42043:1,2002-07-15T09:09:00Z,28.9818,-94.9186,29.7,11144222 
TABS,ioos:station:wmo:42043:1,2002-07-15T09:39:00Z,28.9818,-94.9186,29.6,11144222 
TABS,ioos:station:wmo:42043:1,2002-07-15T10:09:00Z,28.9818,-94.9186,29.6,11144222 
TABS,ioos:station:wmo:42043:1,2002-07-15T10:39:00Z,28.9818,-94.9186,29.6,11144222 
TABS,ioos:station:wmo:42043:1,2002-07-15T11:09:00Z,28.9818,-94.9186,29.7,11144222 
TABS,ioos:station:wmo:42043:1,2002-07-15T11:39:00Z,28.9818,-94.9186,29.7,11144222 
TABS,ioos:station:wmo:42043:1,2002-07-15T12:09:00Z,28.9818,-94.9186,29.6,11144222 
TABS,ioos:station:wmo:42043:1,2002-07-15T12:39:00Z,28.9818,-94.9186,29.4,11144222 
TABS,ioos:station:wmo:42043:1,2002-07-15T13:09:00Z,28.9818,-94.9186,26.5,11144222 
TABS,ioos:station:wmo:42043:1,2002-07-15T16:09:00Z,28.9818,-94.9186,26.5,11144222 
TABS,ioos:station:wmo:42043:1,2002-07-15T16:39:00Z,28.9818,-94.9186,26.8,11144222 
TABS,ioos:station:wmo:42043:1,2002-07-15T17:09:00Z,28.9818,-94.9186,26.6,11144222 
TABS,ioos:station:wmo:42043:1,2002-07-15T17:39:00Z,28.9818,-94.9186,26.9,11144222 
TABS,ioos:station:wmo:42043:1,2002-07-15T18:09:00Z,28.9818,-94.9186,27.0,11144222 
TABS,ioos:station:wmo:42043:1,2002-07-15T18:39:00Z,28.9818,-94.9186,26.8,11144222 
TABS,ioos:station:wmo:42043:1,2002-07-15T19:09:00Z,28.9818,-94.9186,26.3,11144222 
TABS,ioos:station:wmo:42043:1,2002-07-15T19:39:00Z,28.9818,-94.9186,25.9,11144222 
TABS,ioos:station:wmo:42043:1,2002-07-15T20:09:00Z,28.9818,-94.9186,25.7,11144222 
TABS,ioos:station:wmo:42043:1,2002-07-15T20:39:00Z,28.9818,-94.9186,26.1,11144222 
TABS,ioos:station:wmo:42043:1,2002-07-15T21:09:00Z,28.9818,-94.9186,25.7,11144222 
TABS,ioos:station:wmo:42043:1,2002-07-15T21:39:00Z,28.9818,-94.9186,26.1,11144222 
TABS,ioos:station:wmo:42043:1,2002-07-15T22:09:00Z,28.9818,-94.9186,26.5,11144222 
TABS,ioos:station:wmo:42043:1,2002-07-15T22:39:00Z,28.9818,-94.9186,26.5,11144222 
TABS,ioos:station:wmo:42043:1,2002-07-15T23:09:00Z,28.9818,-94.9186,26.8,11144222 
TABS,ioos:station:wmo:42043:1,2002-07-15T23:39:00Z,28.9818,-94.9186,26.6,11144222 
TABS,ioos:station:wmo:42043:1,2002-07-16T00:09:00Z,28.9818,-94.9186,26.9,11144222 
TABS,ioos:station:wmo:42043:1,2002-07-16T00:39:00Z,28.9818,-94.9186,27.2,11144222 
TABS,ioos:station:wmo:42043:1,2002-07-16T01:09:00Z,28.9818,-94.9186,27.7,11144222 
TABS,ioos:station:wmo:42043:1,2002-07-16T01:39:00Z,28.9818,-94.9186,27.8,11144222 
TABS,ioos:station:wmo:42043:1,2002-07-16T02:09:00Z,28.9818,-94.9186,28.1,11144222 
TABS,ioos:station:wmo:42043:1,2002-07-16T02:39:00Z,28.9818,-94.9186,28.1,11144222 
TABS,ioos:station:wmo:42043:1,2002-07-16T03:09:00Z,28.9818,-94.9186,28.1,11144222 
TABS,ioos:station:wmo:42043:1,2002-07-16T03:39:00Z,28.9818,-94.9186,28.2,11144222 
TABS,ioos:station:wmo:42043:1,2002-07-16T04:09:00Z,28.9818,-94.9186,28.2,11144222 
TABS,ioos:station:wmo:42043:1,2002-07-16T04:39:00Z,28.9818,-94.9186,27.0,11144222 
TABS,ioos:station:wmo:42043:1,2002-07-16T05:09:00Z,28.9818,-94.9186,25.6,11144222 
TABS,ioos:station:wmo:42043:1,2002-07-16T05:39:00Z,28.9818,-94.9186,26.0,11144222 
TABS,ioos:station:wmo:42043:1,2002-07-16T06:09:00Z,28.9818,-94.9186,26.4,11144222 
TABS,ioos:station:wmo:42043:1,2002-07-16T06:39:00Z,28.9818,-94.9186,26.7,11144222 
TABS,ioos:station:wmo:42043:1,2002-07-16T07:09:00Z,28.9818,-94.9186,27.1,11144222 
TABS,ioos:station:wmo:42043:1,2002-07-16T07:39:00Z,28.9818,-94.9186,27.6,11144222 
TABS,ioos:station:wmo:42043:1,2002-07-16T08:09:00Z,28.9818,-94.9186,27.6,11144222 
TABS,ioos:station:wmo:42043:1,2002-07-16T08:39:00Z,28.9818,-94.9186,27.7,11144222 
TABS,ioos:station:wmo:42043:1,2002-07-16T09:09:00Z,28.9818,-94.9186,27.9,11144222 
TABS,ioos:station:wmo:42043:1,2002-07-16T09:39:00Z,28.9818,-94.9186,28.2,11144222 
TABS,ioos:station:wmo:42043:1,2002-07-16T10:09:00Z,28.9818,-94.9186,28.5,11144222 
TABS,ioos:station:wmo:42043:1,2002-07-16T10:39:00Z,28.9818,-94.9186,28.7,11144222 
TABS,ioos:station:wmo:42043:1,2002-07-16T11:09:00Z,28.9818,-94.9186,24.7,11144222 
TABS,ioos:station:wmo:42043:1,2002-07-16T11:39:00Z,28.9818,-94.9186,26.1,11144222 
TABS,ioos:station:wmo:42043:1,2002-07-16T12:09:00Z,28.9818,-94.9186,26.3,11144222 
TABS,ioos:station:wmo:42043:1,2002-07-16T12:39:00Z,28.9818,-94.9186,26.5,11144222 
TABS,ioos:station:wmo:42043:1,2002-07-16T13:09:00Z,28.9818,-94.9186,26.7,11144222 
TABS,ioos:station:wmo:42043:1,2002-07-16T13:39:00Z,28.9818,-94.9186,27.1,11144222 
TABS,ioos:station:wmo:42043:1,2002-07-16T14:09:00Z,28.9818,-94.9186,27.4,11144222 
TABS,ioos:station:wmo:42043:1,2002-07-16T14:39:00Z,28.9818,-94.9186,28.0,11144222 
TABS,ioos:station:wmo:42043:1,2002-07-16T15:09:00Z,28.9818,-94.9186,28.1,11144222 
TABS,ioos:station:wmo:42043:1,2002-07-16T15:39:00Z,28.9818,-94.9186,28.2,11144222 
TABS,ioos:station:wmo:42043:1,2002-07-16T16:09:00Z,28.9818,-94.9186,28.3,11144222 
TABS,ioos:station:wmo:42043:1,2002-07-16T16:39:00Z,28.9818,-94.9186,28.3,11144222 
TABS,ioos:station:wmo:42043:1,2002-07-16T17:09:00Z,28.9818,-94.9186,25.0,11144222 
TABS,ioos:station:wmo:42043:1,2002-07-16T17:39:00Z,28.9818,-94.9186,24.9,11144222 
TABS,ioos:station:wmo:42043:1,2002-07-16T18:09:00Z,28.9818,-94.9186,25.1,11144222 
TABS,ioos:station:wmo:42043:1,2002-07-16T18:39:00Z,28.9818,-94.9186,25.2,11144222 
TABS,ioos:station:wmo:42043:1,2002-07-16T19:09:00Z,28.9818,-94.9186,25.3,11144222 
TABS,ioos:station:wmo:42043:1,2002-07-16T19:39:00Z,28.9818,-94.9186,25.5,11144222 
TABS,ioos:station:wmo:42043:1,2002-07-16T20:09:00Z,28.9818,-94.9186,25.7,11144222 
TABS,ioos:station:wmo:42043:1,2002-07-16T20:39:00Z,28.9818,-94.9186,26.2,11144222 
TABS,ioos:station:wmo:42043:1,2002-07-16T21:09:00Z,28.9818,-94.9186,26.4,11144222 
TABS,ioos:station:wmo:42043:1,2002-07-16T21:39:00Z,28.9818,-94.9186,26.8,11144222 
TABS,ioos:station:wmo:42043:1,2002-07-16T22:09:00Z,28.9818,-94.9186,27.0,11144222 
TABS,ioos:station:wmo:42043:1,2002-07-16T22:39:00Z,28.9818,-94.9186,27.1,11144222 
TABS,ioos:station:wmo:42043:1,2002-07-16T23:09:00Z,28.9818,-94.9186,27.1,11144222 
TABS,ioos:station:wmo:42043:1,2002-07-16T23:39:00Z,28.9818,-94.9186,26.5,11144222 
TABS,ioos:station:wmo:42043:1,2002-07-17T00:09:00Z,28.9818,-94.9186,27.0,11144222 
TABS,ioos:station:wmo:42043:1,2002-07-17T00:39:00Z,28.9818,-94.9186,27.0,11144222 
TABS,ioos:station:wmo:42043:1,2002-07-17T01:09:00Z,28.9818,-94.9186,26.4,11144222 
TABS,ioos:station:wmo:42043:1,2002-07-17T01:39:00Z,28.9818,-94.9186,26.6,11144222 
TABS,ioos:station:wmo:42043:1,2002-07-17T02:09:00Z,28.9818,-94.9186,27.3,11144222 
TABS,ioos:station:wmo:42043:1,2002-07-17T02:39:00Z,28.9818,-94.9186,27.6,11144222 
TABS,ioos:station:wmo:42043:1,2002-07-17T03:09:00Z,28.9818,-94.9186,28.1,11144222 
TABS,ioos:station:wmo:42043:1,2002-07-17T03:39:00Z,28.9818,-94.9186,28.2,11144222 
TABS,ioos:station:wmo:42043:1,2002-07-17T04:09:00Z,28.9818,-94.9186,28.2,11144222 
TABS,ioos:station:wmo:42043:1,2002-07-17T04:39:00Z,28.9818,-94.9186,28.4,11144222 
TABS,ioos:station:wmo:42043:1,2002-07-17T05:09:00Z,28.9818,-94.9186,28.5,11144222 
TABS,ioos:station:wmo:42043:1,2002-07-17T05:39:00Z,28.9818,-94.9186,28.4,11144222 
TABS,ioos:station:wmo:42043:1,2002-07-17T06:09:00Z,28.9818,-94.9186,28.6,11144222 
TABS,ioos:station:wmo:42043:1,2002-07-17T19:09:00Z,28.9818,-94.9186,29.2,11144222 
TABS,ioos:station:wmo:42043:1,2002-07-17T19:39:00Z,28.9818,-94.9186,29.3,11144222 
TABS,ioos:station:wmo:42043:1,2002-07-17T20:09:00Z,28.9818,-94.9186,29.5,11144222 
TABS,ioos:station:wmo:42043:1,2002-07-17T20:39:00Z,28.9818,-94.9186,29.6,11144222 
TABS,ioos:station:wmo:42043:1,2002-07-17T21:09:00Z,28.9818,-94.9186,29.6,11144222 
TABS,ioos:station:wmo:42043:1,2002-07-17T21:39:00Z,28.9818,-94.9186,29.7,11144222 
TABS,ioos:station:wmo:42043:1,2002-07-17T22:09:00Z,28.9818,-94.9186,29.8,11144222 
TABS,ioos:station:wmo:42043:1,2002-07-17T22:39:00Z,28.9818,-94.9186,29.8,11144222 
TABS,ioos:station:wmo:42043:1,2002-07-17T23:09:00Z,28.9818,-94.9186,29.9,11144222 
TABS,ioos:station:wmo:42043:1,2002-07-17T23:39:00Z,28.9818,-94.9186,29.8,11144222 
TABS,ioos:station:wmo:42043:1,2002-07-18T00:09:00Z,28.9818,-94.9186,29.7,11144222 
TABS,ioos:station:wmo:42043:1,2002-07-18T00:39:00Z,28.9818,-94.9186,29.6,11144222 
TABS,ioos:station:wmo:42043:1,2002-07-18T01:09:00Z,28.9818,-94.9186,29.3,11144222 
TABS,ioos:station:wmo:42043:1,2002-07-18T01:39:00Z,28.9818,-94.9186,29.2,11144222 
TABS,ioos:station:wmo:42043:1,2002-07-18T02:09:00Z,28.9818,-94.9186,29.2,11144222 
TABS,ioos:station:wmo:42043:1,2002-07-18T02:39:00Z,28.9818,-94.9186,29.1,11144222 
TABS,ioos:station:wmo:42043:1,2002-07-18T03:09:00Z,28.9818,-94.9186,29.1,11144222 
TABS,ioos:station:wmo:42043:1,2002-07-18T03:39:00Z,28.9818,-94.9186,29.1,11144222 
TABS,ioos:station:wmo:42043:1,2002-07-18T04:09:00Z,28.9818,-94.9186,29.1,11144222 
TABS,ioos:station:wmo:42043:1,2002-07-18T04:39:00Z,28.9818,-94.9186,29.0,11144222 
TABS,ioos:station:wmo:42043:1,2002-07-18T05:09:00Z,28.9818,-94.9186,29.0,11144222 
TABS,ioos:station:wmo:42043:1,2002-07-18T05:39:00Z,28.9818,-94.9186,29.0,11144222 
TABS,ioos:station:wmo:42043:1,2002-07-18T06:09:00Z,28.9818,-94.9186,28.9,11144222 
TABS,ioos:station:wmo:42043:1,2002-07-18T06:39:00Z,28.9818,-94.9186,28.9,11144222 
TABS,ioos:station:wmo:42043:1,2002-07-18T07:09:00Z,28.9818,-94.9186,28.9,11144222 
TABS,ioos:station:wmo:42043:1,2002-07-18T07:39:00Z,28.9818,-94.9186,28.8,11144222 
TABS,ioos:station:wmo:42043:1,2002-07-18T08:09:00Z,28.9818,-94.9186,28.9,11144222 
TABS,ioos:station:wmo:42043:1,2002-07-18T08:39:00Z,28.9818,-94.9186,28.8,11144222 
TABS,ioos:station:wmo:42043:1,2002-07-18T09:09:00Z,28.9818,-94.9186,28.8,11144222 
TABS,ioos:station:wmo:42043:1,2002-07-18T09:39:00Z,28.9818,-94.9186,28.8,11144222 
TABS,ioos:station:wmo:42043:1,2002-07-18T10:09:00Z,28.9818,-94.9186,28.8,11144222 
TABS,ioos:station:wmo:42043:1,2002-07-18T10:39:00Z,28.9818,-94.9186,28.8,11144222 
TABS,ioos:station:wmo:42043:1,2002-07-18T11:09:00Z,28.9818,-94.9186,28.7,11144222 
TABS,ioos:station:wmo:42043:1,2002-07-18T11:39:00Z,28.9818,-94.9186,28.8,11144222 
TABS,ioos:station:wmo:42043:1,2002-07-18T12:09:00Z,28.9818,-94.9186,28.9,11144222 
TABS,ioos:station:wmo:42043:1,2002-07-18T12:39:00Z,28.9818,-94.9186,29.0,11144222 
TABS,ioos:station:wmo:42043:1,2002-07-18T13:09:00Z,28.9818,-94.9186,29.1,11144222 
TABS,ioos:station:wmo:42043:1,2002-07-18T13:39:00Z,28.9818,-94.9186,29.1,11144222 
TABS,ioos:station:wmo:42043:1,2002-07-18T14:09:00Z,28.9818,-94.9186,29.1,11144222 
TABS,ioos:station:wmo:42043:1,2002-07-18T14:39:00Z,28.9818,-94.9186,29.0,11144222 
TABS,ioos:station:wmo:42043:1,2002-07-18T15:09:00Z,28.9818,-94.9186,29.1,11144222 
TABS,ioos:station:wmo:42043:1,2002-07-18T15:39:00Z,28.9818,-94.9186,29.2,11144222 
TABS,ioos:station:wmo:42043:1,2002-07-18T16:09:00Z,28.9818,-94.9186,29.2,11144222 
TABS,ioos:station:wmo:42043:1,2002-07-18T16:39:00Z,28.9818,-94.9186,29.2,11144222 
TABS,ioos:station:wmo:42043:1,2002-07-18T17:09:00Z,28.9818,-94.9186,29.2,11144222 
TABS,ioos:station:wmo:42043:1,2002-07-18T17:39:00Z,28.9818,-94.9186,29.2,11144222 
TABS,ioos:station:wmo:42043:1,2002-07-18T18:09:00Z,28.9818,-94.9186,29.3,11144222 
TABS,ioos:station:wmo:42043:1,2002-07-18T18:39:00Z,28.9818,-94.9186,29.3,11144222 
TABS,ioos:station:wmo:42043:1,2002-07-18T19:09:00Z,28.9818,-94.9186,29.3,11144222 
TABS,ioos:station:wmo:42043:1,2002-07-18T19:39:00Z,28.9818,-94.9186,29.4,11144222 
TABS,ioos:station:wmo:42043:1,2002-07-18T20:09:00Z,28.9818,-94.9186,29.4,11144222 
TABS,ioos:station:wmo:42043:1,2002-07-18T20:39:00Z,28.9818,-94.9186,29.5,11144222 
TABS,ioos:station:wmo:42043:1,2002-07-18T21:09:00Z,28.9818,-94.9186,29.6,11144222 
TABS,ioos:station:wmo:42043:1,2002-07-18T21:39:00Z,28.9818,-94.9186,29.6,11144222 
TABS,ioos:station:wmo:42043:1,2002-07-18T22:09:00Z,28.9818,-94.9186,29.7,11144222 
TABS,ioos:station:wmo:42043:1,2002-07-18T22:39:00Z,28.9818,-94.9186,29.8,11144222 
TABS,ioos:station:wmo:42043:1,2002-07-18T23:09:00Z,28.9818,-94.9186,29.7,11144222 
TABS,ioos:station:wmo:42043:1,2002-07-18T23:39:00Z,28.9818,-94.9186,29.7,11144222 
TABS,ioos:station:wmo:42043:1,2002-07-19T00:09:00Z,28.9818,-94.9186,29.6,11144222 
TABS,ioos:station:wmo:42043:1,2002-07-19T00:39:00Z,28.9818,-94.9186,29.5,11144222 
TABS,ioos:station:wmo:42043:1,2002-07-19T01:09:00Z,28.9818,-94.9186,29.3,11144222 
TABS,ioos:station:wmo:42043:1,2002-07-19T01:39:00Z,28.9818,-94.9186,29.3,11144222 
TABS,ioos:station:wmo:42043:1,2002-07-19T02:09:00Z,28.9818,-94.9186,29.2,11144222 
TABS,ioos:station:wmo:42043:1,2002-07-19T02:39:00Z,28.9818,-94.9186,29.2,11144222 
TABS,ioos:station:wmo:42043:1,2002-07-19T03:39:00Z,28.9818,-94.9186,29.1,11144222 
TABS,ioos:station:wmo:42043:1,2002-07-19T04:09:00Z,28.9818,-94.9186,29.1,11144222 
TABS,ioos:station:wmo:42043:1,2002-07-19T04:39:00Z,28.9818,-94.9186,29.1,11144222 
TABS,ioos:station:wmo:42043:1,2002-07-19T06:39:00Z,28.9818,-94.9186,29.0,11144222 
TABS,ioos:station:wmo:42043:1,2002-07-19T07:09:00Z,28.9818,-94.9186,29.0,11144222 
TABS,ioos:station:wmo:42043:1,2002-07-19T07:39:00Z,28.9818,-94.9186,29.0,11144222 
TABS,ioos:station:wmo:42043:1,2002-07-19T09:39:00Z,28.9818,-94.9186,28.9,11144222 
TABS,ioos:station:wmo:42043:1,2002-07-19T10:09:00Z,28.9818,-94.9186,28.8,11144222 
TABS,ioos:station:wmo:42043:1,2002-07-19T10:39:00Z,28.9818,-94.9186,28.9,11144222 
TABS,ioos:station:wmo:42043:1,2002-07-19T12:09:00Z,28.9818,-94.9186,28.9,11144222 
TABS,ioos:station:wmo:42043:1,2002-07-19T12:39:00Z,28.9818,-94.9186,29.1,11144222 
TABS,ioos:station:wmo:42043:1,2002-07-19T13:09:00Z,28.9818,-94.9186,29.1,11144222 
TABS,ioos:station:wmo:42043:1,2002-07-19T13:39:00Z,28.9818,-94.9186,29.2,11144222 
TABS,ioos:station:wmo:42043:1,2002-07-19T15:09:00Z,28.9818,-94.9186,29.2,11144222 
TABS,ioos:station:wmo:42043:1,2002-07-19T15:39:00Z,28.9818,-94.9186,29.2,11144222 
TABS,ioos:station:wmo:42043:1,2002-07-19T16:09:00Z,28.9818,-94.9186,29.3,11144222 
TABS,ioos:station:wmo:42043:1,2002-07-19T16:39:00Z,28.9818,-94.9186,29.2,11144222 
TABS,ioos:station:wmo:42043:1,2002-07-19T18:39:00Z,28.9818,-94.9186,29.4,11144222 
TABS,ioos:station:wmo:42043:1,2002-07-19T19:09:00Z,28.9818,-94.9186,29.4,11144222 
TABS,ioos:station:wmo:42043:1,2002-07-19T19:39:00Z,28.9818,-94.9186,29.5,11144222 
TABS,ioos:station:wmo:42043:1,2002-07-20T00:09:00Z,28.9818,-94.9186,29.7,11144222 
TABS,ioos:station:wmo:42043:1,2002-07-20T00:39:00Z,28.9818,-94.9186,29.7,11144222 
TABS,ioos:station:wmo:42043:1,2002-07-20T01:09:00Z,28.9818,-94.9186,29.4,11144222 
TABS,ioos:station:wmo:42043:1,2002-07-20T01:39:00Z,28.9818,-94.9186,29.4,11144222 
TABS,ioos:station:wmo:42043:1,2002-07-20T06:39:00Z,28.9818,-94.9186,29.1,11144222 
TABS,ioos:station:wmo:42043:1,2002-07-20T07:09:00Z,28.9818,-94.9186,29.0,11144222 
TABS,ioos:station:wmo:42043:1,2002-07-20T07:39:00Z,28.9818,-94.9186,29.0,11144222 
TABS,ioos:station:wmo:42043:1,2002-07-20T09:39:00Z,28.9818,-94.9186,28.9,11144222 
TABS,ioos:station:wmo:42043:1,2002-07-20T10:09:00Z,28.9818,-94.9186,28.9,11144222 
TABS,ioos:station:wmo:42043:1,2002-07-20T10:39:00Z,28.9818,-94.9186,28.8,11144222 
TABS,ioos:station:wmo:42043:1,2002-07-20T12:39:00Z,28.9818,-94.9186,29.2,11144222 
TABS,ioos:station:wmo:42043:1,2002-07-20T13:09:00Z,28.9818,-94.9186,29.2,11144222 
TABS,ioos:station:wmo:42043:1,2002-07-20T13:39:00Z,28.9818,-94.9186,29.2,11144222 
TABS,ioos:station:wmo:42043:1,2002-07-20T15:09:00Z,28.9818,-94.9186,30.2,11144222 
TABS,ioos:station:wmo:42043:1,2002-07-20T15:39:00Z,28.9818,-94.9186,29.8,11144222 
TABS,ioos:station:wmo:42043:1,2002-07-20T16:09:00Z,28.9818,-94.9186,29.6,11144222 
TABS,ioos:station:wmo:42043:1,2002-07-20T16:39:00Z,28.9818,-94.9186,29.6,11144222 
TABS,ioos:station:wmo:42043:1,2002-07-20T18:09:00Z,28.9818,-94.9186,29.8,11144222 
TABS,ioos:station:wmo:42043:1,2002-07-20T18:39:00Z,28.9818,-94.9186,29.7,11144222 
TABS,ioos:station:wmo:42043:1,2002-07-20T19:09:00Z,28.9818,-94.9186,29.8,11144222 
TABS,ioos:station:wmo:42043:1,2002-07-20T19:39:00Z,28.9818,-94.9186,29.7,11144222 
TABS,ioos:station:wmo:42043:1,2002-07-21T00:09:00Z,28.9818,-94.9186,30.0,11144222 
TABS,ioos:station:wmo:42043:1,2002-07-21T00:39:00Z,28.9818,-94.9186,29.9,11144222 
TABS,ioos:station:wmo:42043:1,2002-07-21T01:09:00Z,28.9818,-94.9186,29.8,11144222 
TABS,ioos:station:wmo:42043:1,2002-07-21T01:39:00Z,28.9818,-94.9186,29.7,11144222 
TABS,ioos:station:wmo:42043:1,2002-07-21T03:09:00Z,28.9818,-94.9186,29.6,11144222 
TABS,ioos:station:wmo:42043:1,2002-07-21T03:39:00Z,28.9818,-94.9186,29.6,11144222 
TABS,ioos:station:wmo:42043:1,2002-07-21T04:09:00Z,28.9818,-94.9186,29.6,11144222 
TABS,ioos:station:wmo:42043:1,2002-07-21T04:39:00Z,28.9818,-94.9186,29.6,11144222 
TABS,ioos:station:wmo:42043:1,2002-07-21T06:09:00Z,28.9818,-94.9186,29.5,11144222 
TABS,ioos:station:wmo:42043:1,2002-07-21T06:39:00Z,28.9818,-94.9186,29.5,11144222 
TABS,ioos:station:wmo:42043:1,2002-07-21T07:09:00Z,28.9818,-94.9186,29.5,11144222 
TABS,ioos:station:wmo:42043:1,2002-07-21T07:39:00Z,28.9818,-94.9186,29.5,11144222 
TABS,ioos:station:wmo:42043:1,2002-07-21T09:39:00Z,28.9818,-94.9186,29.4,11144222 
TABS,ioos:station:wmo:42043:1,2002-07-21T10:09:00Z,28.9818,-94.9186,29.3,11144222 
TABS,ioos:station:wmo:42043:1,2002-07-21T10:39:00Z,28.9818,-94.9186,29.3,11144222 
TABS,ioos:station:wmo:42043:1,2002-07-21T12:39:00Z,28.9818,-94.9186,29.4,11144222 
TABS,ioos:station:wmo:42043:1,2002-07-21T13:09:00Z,28.9818,-94.9186,29.5,11144222 
TABS,ioos:station:wmo:42043:1,2002-07-21T13:39:00Z,28.9818,-94.9186,29.6,11144222 
TABS,ioos:station:wmo:42043:1,2002-07-21T15:39:00Z,28.9818,-94.9186,29.9,11144222 
TABS,ioos:station:wmo:42043:1,2002-07-21T16:09:00Z,28.9818,-94.9186,29.7,11144222 
TABS,ioos:station:wmo:42043:1,2002-07-21T16:39:00Z,28.9818,-94.9186,29.6,11144222 
TABS,ioos:station:wmo:42043:1,2002-07-21T21:39:00Z,28.9818,-94.9186,30.0,11144222 
TABS,ioos:station:wmo:42043:1,2002-07-21T22:09:00Z,28.9818,-94.9186,30.0,11144222 
TABS,ioos:station:wmo:42043:1,2002-07-21T22:39:00Z,28.9818,-94.9186,30.0,11144222 
TABS,ioos:station:wmo:42043:1,2002-07-22T00:39:00Z,28.9818,-94.9186,29.9,11144222 
TABS,ioos:station:wmo:42043:1,2002-07-22T01:09:00Z,28.9818,-94.9186,29.8,11144222 
TABS,ioos:station:wmo:42043:1,2002-07-22T01:39:00Z,28.9818,-94.9186,29.8,11144222 
TABS,ioos:station:wmo:42043:1,2002-07-22T06:39:00Z,28.9818,-94.9186,29.4,11144222 
TABS,ioos:station:wmo:42043:1,2002-07-22T07:09:00Z,28.9818,-94.9186,29.3,11144222 
TABS,ioos:station:wmo:42043:1,2002-07-22T07:39:00Z,28.9818,-94.9186,29.4,11144222 
TABS,ioos:station:wmo:42043:1,2002-07-22T09:39:00Z,28.9818,-94.9186,29.3,11144222 
TABS,ioos:station:wmo:42043:1,2002-07-22T10:09:00Z,28.9818,-94.9186,29.2,11144222 
TABS,ioos:station:wmo:42043:1,2002-07-22T10:39:00Z,28.9818,-94.9186,29.2,11144222 
TABS,ioos:station:wmo:42043:1,2002-07-22T12:39:00Z,28.9818,-94.9186,29.7,11144222 
TABS,ioos:station:wmo:42043:1,2002-07-22T13:09:00Z,28.9818,-94.9186,29.7,11144222 
TABS,ioos:station:wmo:42043:1,2002-07-22T13:39:00Z,28.9818,-94.9186,29.8,11144222 
TABS,ioos:station:wmo:42043:1,2002-07-22T15:09:00Z,28.9818,-94.9186,30.2,11144222 
TABS,ioos:station:wmo:42043:1,2002-07-22T15:39:00Z,28.9818,-94.9186,30.4,11144222 
TABS,ioos:station:wmo:42043:1,2002-07-22T16:09:00Z,28.9818,-94.9186,30.3,11144222 
TABS,ioos:station:wmo:42043:1,2002-07-22T16:39:00Z,28.9818,-94.9186,30.2,11144222 
TABS,ioos:station:wmo:42043:1,2002-07-22T18:09:00Z,28.9818,-94.9186,30.0,11144222 
TABS,ioos:station:wmo:42043:1,2002-07-22T18:39:00Z,28.9818,-94.9186,30.0,11144222 